Regional Weather Roundup
Issued by NWS

Home | Current Version | Previous Version | Text Only | Print | Product List | Glossary Off
Versions: 1 2 3 4 5 6 7 8 9 10 11 12 13 14 15 16 17 18 19 20 21 22 23 24 25 26 27 28 29 30 31 32 33 34 35 36 37 38 39 40 41 42 43 44 45 46 47 48 49 50

000
ASUS43 KBIS 210010
RWRND

NORTH DAKOTA REGIONAL WEATHER ROUNDUP
NATIONAL WEATHER SERVICE BISMARCK ND
600 PM CST FRI JAN 20 2017

NOTE: "FAIR" INDICATES FEW OR NO CLOUDS BELOW 12,000 FEET WITH NO
SIGNIFICANT WEATHER AND/OR OBSTRUCTIONS TO VISIBILITY.


NDZ001>003-009>011-017-210100-
NORTHWEST NORTH DAKOTA

CITY           SKY/WX    TMP DP  RH WIND       PRES   REMARKS
WILLISTON      FAIR      29  25  85 SW5       29.34S
6HR MIN TEMP:  23; 6HR MAX TEMP:  33;

MINOT          CLOUDY    28  26  92 S8        29.35S WCI  20
MINOT AFB      CLOUDY    23  23 100 S8        29.35R FOG     WCI  14
$$

NDZ018>021-031>035-040>046-210100-
SOUTHWEST NORTH DAKOTA

CITY           SKY/WX    TMP DP  RH WIND       PRES   REMARKS
BISMARCK       CLOUDY    31  30  96 W3        29.36R FOG
6HR MIN TEMP:  28; 6HR MAX TEMP:  32;

DICKINSON      FAIR      31  27  85 NW7       29.31R
GARRISON         N/A     25  24  96 S3        29.34S
6HR MIN TEMP:  20; 6HR MAX TEMP:  26;

HETTINGER ARPT CLOUDY    30  27  88 NW6       29.33R
$$

NDZ004>008-012>016-024-026-027-054-210100-
NORTHEAST NORTH DAKOTA

CITY           SKY/WX    TMP DP  RH WIND       PRES   REMARKS
GRAND FORKS    CLOUDY    36  33  89 SE8       29.45S
GRND FRKS AFB  CLOUDY    34  33  99 E9        29.45R FOG
DEVILS LAKE    CLOUDY    33  33 100 SE8       29.39S
$$

NDZ022-023-025-028>030-036>039-047>053-210100-
SOUTHEAST NORTH DAKOTA

CITY           SKY/WX    TMP DP  RH WIND       PRES   REMARKS
FARGO          CLOUDY    39  35  86 SE13      29.44R
6HR MIN TEMP:  38; 6HR MAX TEMP:  39;

JAMESTOWN      FOG       33  33 100 SE12      29.36F VSB 1
$$





USA.gov is the U.S. government's official web portal to all federal, state and local government web resources and services.